This is the latest recevied weather packets stored in our database for station/object KY4OP-13. If no packets are shown the sender has not sent any weather packets the latest 10 day(s).
| Time | Temp. | Humidity | Pressure | Rain* | Wind** | Luminosity | Snow |
|---|---|---|---|---|---|---|---|
| 1778004391 | 27.22° C | 34% | 1013.5 hPa | 0 mm | - | - | - |
| 1778004089 | 27.22° C | 37% | 1013.6 hPa | 0 mm | - | - | - |
| 1778003785 | 27.78° C | 41% | 1013.4 hPa | 0 mm | - | - | - |
| 1778003482 | 27.78° C | 40% | 1013.6 hPa | 0 mm | - | - | - |
| 1778003178 | 27.22° C | 40% | 1013.5 hPa | 0 mm | - | - | - |
| 1778002874 | 27.22° C | 39% | 1013.7 hPa | 0 mm | - | - | - |
| 1778002571 | 26.67° C | 41% | 1013.5 hPa | 0 mm | - | - | - |
| 1778002268 | 27.22° C | 40% | 1013.5 hPa | 0 mm | - | - | - |
| 1778001966 | 27.78° C | 42% | 1013.5 hPa | 0 mm | - | - | - |
| 1778001662 | 26.67° C | 42% | 1013.8 hPa | 0 mm | - | - | - |
| 1778001357 | 26.67° C | 45% | 1013.8 hPa | 0 mm | - | - | - |
| 1778001054 | 27.22° C | 42% | 1013.9 hPa | 0 mm | - | - | - |
| 1778000751 | 26.67° C | 40% | 1013.9 hPa | 0 mm | - | - | - |
| 1778000447 | 26.67° C | 43% | 1013.8 hPa | 0 mm | - | - | - |
| 1778000142 | 26.67° C | 43% | 1014 hPa | 0 mm | - | - | - |
| 1777999838 | 26.11° C | 45% | 1013.8 hPa | 0 mm | - | - | - |
| 1777999535 | 27.22° C | 41% | 1014.1 hPa | 0 mm | - | - | - |
| 1777999232 | 27.22° C | 41% | 1014 hPa | 0 mm | - | - | - |
| 1777998931 | 26.67° C | 44% | 1014.1 hPa | 0 mm | - | - | - |
| 1777998627 | 26.11° C | 46% | 1014 hPa | 0 mm | - | - | - |
| 1777998321 | 26.11° C | 40% | 1014.1 hPa | 0 mm | - | - | - |
| 1777998018 | 25.56° C | 42% | 1014.1 hPa | 0 mm | - | - | - |
| 1777997714 | 26.11° C | 43% | 1014.4 hPa | 0 mm | - | - | - |
| 1777997411 | 25.56° C | 43% | 1014.4 hPa | 0 mm | - | - | - |
| 1777997109 | 25.56° C | 41% | 1014.6 hPa | 0 mm | - | - | - |
* Rain latest hour (hover to see other rain measurements)
** Current wind speed in m/s (hover to see current wind gust speed)